Weather in Wick

United Kingdom     58°26′21″N   3°05′38″W
temp.,
°C
wind,
m/s
gust,
m/s
humid.,
%
clouds,
%
prec.,
mm/h
press.,
hPa
HPBL,
m
8 august, mon
mon801:00+15wsw5785100 0.4 1022126
04:00+14sw57836 0.0 1022138
07:00+14ssw598696 0.0 1023148
10:00+15sw6782100 0.0 1023107
13:00+15ssw5683100 0.3 102456
16:00+15s3386100 1.0 102426
19:00+15ssw4690100 2.0 102471
22:00+15sw5686100 0.0 102554
9 august, tue
tue901:00+15sw3389100 0.1 102526
04:00+15ssw4690100 0.0 102561
07:00+14ssw6891100 0.1 1025108
10:00+15ssw81290100 0.0 1025185
13:00+16ssw7983100 0.0 102480
16:00+17ssw81079100 0.0 102479
19:00+17ssw79784 0.0 102473
22:00+16ssw7107719 0.0 102481
10 august, wed
wed1001:00+16ssw813802 0.0 1024136
04:00+15ssw913840 0.0 1023155
07:00+14ssw812830 0.0 1023145
10:00+15ssw913800 0.0 1023149
13:00+16ssw8107740 0.0 102276
16:00+18sw67735 0.0 102240
19:00+18w4576100 0.0 102217
22:00+16wnw33845 0.0 102213
11 august, thu
thu1101:00+15sse338912 0.0 102221
04:00+15wsw33800 0.0 102212
07:00+15sw22775 0.0 102216
10:00+15ssw33800 0.0 102225
13:00+16s33765 0.0 102323
16:00+17sse22730 0.0 102212
19:00+16ne44790 0.0 102384
22:00+15ne33840 0.0 102437
12 august, fri
fri1201:00+15ene33830 0.0 102423
04:00+14e23823 0.0 102316
07:00+14se22825 0.0 102313
10:00+14se228221 0.0 102316
13:00+14e238499 0.0 102354
16:00+15e33835 0.0 102275
19:00+15ne34835 0.0 102274
22:00+15ene33834 0.0 102214